Wind_Speed
22 21 22 23 23 23 23 23 22 21 21 22 22 22 22 22 22 22 22 23 23 22 22 22 21 21 22 22 22 22 22 22 22 23 23 24 24 25 25 25 25 26 27
21 21 22 22 22 23 23 23 22 22 22 22 21 21 21 21 21 22 22 22 21 21 21 21 21 21 21 22 22 22 22 22 22 22 22 22 23 23 23 23 24 25 26
22 22 22 23 22 22 22 22 22 22 22 22 21 20 20 19 20 20 20 20 20 20 20 20 20 20 21 22 22 22 22 21 22 22 22 22 22 22 23 23 23 24 25
22 22 22 22 22 22 22 22 21 21 21 21 20 19 19 19 19 20 20 20 20 20 20 19 19 19 20 20 21 21 21 21 21 21 21 21 21 21 22 22 22 23 23
22 22 22 22 21 21 21 21 21 21 20 20 19 19 18 19 19 20 20 20 20 19 18 18 18 19 20 20 20 19 20 19 20 20 20 20 20 21 21 21 21 22 23
22 21 21 21 21 21 21 21 21 20 19 19 18 18 18 19 20 20 20 20 19 19 18 18 18 18 19 19 19 20 20 19 19 19 20 20 20 21 21 21 21 21 21
21 21 21 21 21 21 20 20 20 20 19 19 18 18 19 19 19 19 19 19 19 18 18 18 18 18 19 19 19 19 19 19 19 20 20 21 21 21 21 21 21 21 21
21 20 20 20 20 20 20 20 20 19 19 20 19 19 18 18 19 18 18 18 19 18 18 18 18 19 19 19 19 19 19 19 20 20 21 21 20 21 21 21 22 22 22
20 20 19 20 20 20 21 20 20 19 19 19 18 18 17 17 17 18 18 19 19 19 19 19 19 19 19 19 19 19 19 19 20 21 22 21 21 21 21 21 21 21 21
19 19 19 19 20 20 20 20 19 19 19 18 17 17 17 17 17 18 19 20 20 20 20 20 20 20 20 20 19 19 20 20 21 21 22 21 21 21 21 22 21 21 21
18 18 18 19 19 20 20 19 19 18 17 17 16 16 16 17 17 18 19 19 20 20 20 21 21 20 20 19 20 20 21 21 21 22 22 22 21 21 21 22 21 21 21
16 17 18 19 19 19 18 18 18 17 15 15 15 15 15 17 17 17 18 19 19 20 20 20 20 20 20 19 20 21 21 21 21 22 22 22 21 21 21 21 21 21 20
16 17 17 17 18 17 17 16 16 15 14 13 13 14 15 16 16 18 19 19 20 20 20 20 20 20 20 20 20 21 22 21 22 22 22 21 21 21 21 21 21 21 20
17 17 15 16 16 16 16 15 14 13 13 13 13 14 15 16 17 18 19 19 20 20 19 20 20 19 19 19 20 21 21 21 21 21 20 21 20 20 20 20 20 20 20
15 14 14 14 14 14 13 13 12 12 13 13 13 15 17 18 18 18 18 19 19 20 19 20 20 20 20 20 21 20 20 21 21 21 21 21 21 21 21 21 20 20 20
14 13 13 13 13 12 12 12 12 13 13 14 14 16 17 17 18 18 19 20 20 21 20 21 20 20 20 20 21 21 20 21 21 21 21 21 21 20 21 21 21 20 20
13 13 12 12 11 11 12 13 13 13 13 14 15 16 17 18 18 18 19 20 20 21 21 21 21 20 21 22 22 22 21 22 21 21 21 20 20 21 21 21 21 22 22
12 11 10 10 11 12 13 13 13 13 13 14 15 16 18 18 19 19 19 20 20 21 21 21 21 21 22 23 23 22 22 22 22 21 21 21 21 21 21 21 21 22 22
10 9 8 9 10 11 12 13 12 13 13 14 16 17 18 19 19 19 20 21 21 21 21 21 21 22 22 22 22 22 22 22 22 21 21 21 21 20 21 21 21 21 22
8 7 7 8 9 10 12 12 12 13 13 15 16 17 18 19 19 20 21 21 22 22 22 22 22 22 22 22 22 22 22 21 22 21 21 21 20 20 20 20 20 21 21
6 6 7 7 8 10 11 11 12 13 14 15 16 17 18 19 20 20 21 22 22 22 22 22 22 22 23 23 22 22 22 21 21 21 21 19 19 19 19 19 19 20 20
6 6 6 7 9 10 10 11 12 13 14 15 16 17 18 19 19 20 21 22 22 22 23 23 23 23 23 23 23 23 22 22 21 21 20 19 18 19 19 19 20 20 19
5 5 6 7 8 9 10 10 11 12 14 15 15 17 18 19 20 21 22 22 23 23 23 23 23 23 23 23 23 23 22 21 21 20 20 19 19 19 19 19 19 19 19
5 5 6 7 8 10 10 11 11 12 13 14 15 17 18 19 19 21 22 22 23 23 23 23 24 23 23 23 23 23 23 22 22 21 21 20 20 19 20 20 20 20 20
5 5 6 7 8 10 11 11 11 12 13 14 15 16 18 18 19 21 22 22 22 23 23 24 24 24 24 24 24 24 23 23 23 22 21 21 21 21 21 21 21 21 21
6 6 7 8 9 10 11 11 11 11 12 13 14 16 18 19 20 21 22 22 22 23 24 24 24 25 24 25 25 25 24 24 24 23 22 22 22 23 22 22 22 22 22
Wind_Direction
305 303 302 304 305 306 307 306 306 304 304 305 304 302 302 301 302 303 303 303 302 301 300 298 298 299 300 297 296 295 293 293 292 290 288 285 283 280 278 274 272 270 268
304 305 305 305 306 306 306 305 305 305 307 307 305 304 304 303 303 303 304 305 302 301 301 300 300 300 299 299 300 299 297 295 294 292 290 288 286 283 281 277 275 273 272
305 304 305 306 307 307 306 306 307 307 307 306 305 306 306 306 307 306 305 304 303 304 303 303 303 302 302 301 301 301 300 298 297 295 293 291 288 285 285 282 278 275 274
306 305 305 305 306 307 308 308 307 307 307 307 307 306 307 309 309 308 306 306 305 305 305 305 303 303 304 304 304 304 304 301 299 299 297 293 291 289 286 284 281 277 275
306 306 305 306 306 308 310 311 311 310 310 310 309 308 309 312 313 311 306 307 307 306 306 305 304 303 306 306 305 305 305 305 304 303 300 299 297 293 290 288 285 279 277
307 307 306 305 306 306 308 309 309 310 312 311 309 309 309 310 311 311 310 308 307 308 307 305 305 303 306 308 308 307 307 307 307 307 305 303 300 296 293 292 288 284 281
308 308 307 305 303 304 305 307 307 306 308 308 308 306 308 309 311 312 311 309 309 309 307 308 309 306 306 307 308 308 308 309 309 310 309 306 302 298 295 293 291 287 285
309 309 308 307 306 306 307 306 305 305 306 307 305 307 310 311 313 312 311 312 312 310 308 308 308 308 307 306 308 308 306 307 310 312 311 308 305 302 299 296 295 293 289
311 310 310 309 308 309 311 310 306 306 308 306 307 309 311 313 313 313 314 314 313 312 310 309 309 307 307 306 305 306 306 307 310 310 310 308 307 305 301 299 297 294 289
311 310 312 313 312 313 314 314 311 310 309 308 309 311 315 314 314 316 318 317 316 315 312 312 311 310 308 307 307 305 305 307 308 310 311 310 308 306 304 303 300 295 291
311 313 316 317 316 315 315 315 314 315 315 315 312 313 316 317 318 320 320 320 319 318 316 315 315 314 311 308 308 308 307 307 307 307 308 308 309 309 307 306 303 298 294
314 316 319 320 320 318 316 316 317 319 321 320 317 317 317 320 322 323 324 323 322 321 320 319 318 318 315 312 312 312 312 311 311 309 307 308 308 309 309 308 307 302 298
313 316 319 322 323 321 320 319 321 323 326 325 322 321 321 325 326 326 328 327 326 325 324 323 321 320 321 318 316 315 314 313 312 311 310 310 310 310 310 309 308 305 302
312 316 319 322 324 324 324 322 326 329 330 330 327 325 326 328 329 330 331 330 330 329 328 329 327 325 323 322 320 319 317 315 314 313 312 313 312 312 312 311 310 308 305
314 316 318 321 322 325 328 328 331 333 333 333 332 329 330 331 332 333 333 333 333 334 333 332 330 327 324 322 324 323 321 319 316 315 314 313 314 314 313 312 311 310 308
312 316 318 320 322 327 333 334 337 338 337 336 333 331 334 336 335 335 337 336 334 333 331 331 331 328 327 326 326 325 324 322 319 317 316 316 316 315 315 314 313 311 310
315 316 319 324 329 333 333 335 340 342 340 339 338 336 336 339 338 337 338 338 335 333 332 331 330 330 330 330 329 327 325 323 321 319 318 317 317 318 318 317 316 314 312
316 318 323 329 335 336 335 340 345 347 347 344 341 340 339 340 340 340 341 340 338 336 335 334 332 332 332 331 330 329 327 325 324 321 319 317 317 317 317 317 318 319 316
317 321 328 336 341 343 343 345 346 348 348 345 344 344 344 344 343 343 344 344 343 340 338 337 336 335 335 334 333 332 329 327 326 324 322 321 319 318 319 319 319 320 320
323 328 333 340 347 348 346 345 345 346 345 344 345 346 346 345 344 344 345 347 345 343 342 341 341 340 339 339 337 335 334 331 330 330 328 326 326 325 324 323 323 323 324
320 325 332 339 343 343 343 343 344 345 345 346 347 346 347 348 347 347 348 349 347 347 347 346 345 344 343 342 341 340 338 336 334 335 335 334 332 331 330 328 328 328 327
311 316 325 332 335 337 339 341 345 348 348 349 349 348 349 350 349 349 349 350 350 350 350 349 348 348 347 346 345 344 342 340 339 339 340 339 337 336 334 332 330 329 329
316 320 326 332 337 339 340 343 346 349 349 349 349 349 350 350 350 351 352 353 352 352 353 352 352 351 350 348 347 347 345 345 345 343 342 340 339 338 336 334 332 332 331
316 321 323 328 334 339 341 343 346 346 346 348 350 350 351 352 353 353 354 355 355 355 354 354 354 354 353 352 351 351 351 350 348 346 345 344 342 340 338 336 335 334 332
312 315 319 324 330 335 338 340 343 344 345 347 349 350 352 354 354 355 355 356 355 356 357 357 356 356 355 355 354 354 353 351 349 347 346 345 344 342 340 338 338 336 334
304 308 317 324 330 334 338 341 342 344 347 348 350 351 353 354 354 355 356 356 356 356 357 356 356 357 357 357 356 355 354 353 352 350 349 347 345 344 343 342 341 340 338
Height
5766 5764 5762 5759 5756 5753 5750 5748 5745 5742 5739 5736 5734 5731 5729 5727 5725 5723 5720 5718 5715 5713 5711 5709 5707 5705 5703 5701 5699 5697 5695 5693 5691 5689 5687 5685 5683 5682 5681 5681 5680 5679 5679
5761 5759 5756 5754 5751 5748 5745 5742 5740 5737 5734 5731 5728 5725 5723 5721 5719 5717 5714 5712 5709 5707 5705 5703 5701 5699 5697 5695 5692 5690 5688 5686 5684 5682 5681 5679 5677 5676 5675 5673 5673 5672 5671
5757 5754 5751 5749 5746 5743 5740 5737 5734 5731 5728 5725 5723 5720 5718 5715 5713 5711 5709 5706 5704 5702 5699 5697 5695 5693 5691 5689 5686 5684 5682 5680 5678 5676 5674 5672 5670 5669 5668 5667 5665 5664 5664
5752 5749 5746 5744 5741 5738 5735 5732 5729 5726 5723 5720 5717 5714 5713 5710 5708 5706 5704 5701 5699 5697 5694 5692 5690 5688 5685 5683 5680 5678 5676 5674 5672 5670 5668 5666 5664 5662 5661 5660 5658 5657 5656
5746 5744 5741 5739 5736 5733 5730 5727 5724 5721 5717 5714 5712 5710 5708 5706 5703 5701 5699 5697 5694 5692 5689 5687 5685 5683 5680 5678 5675 5673 5671 5669 5666 5664 5662 5660 5658 5656 5654 5653 5651 5650 5649
5741 5738 5736 5733 5731 5728 5725 5722 5719 5716 5713 5710 5708 5706 5704 5701 5699 5696 5694 5692 5689 5687 5685 5682 5680 5678 5676 5673 5670 5668 5666 5664 5661 5659 5656 5654 5652 5650 5648 5646 5645 5644 5643
5736 5733 5731 5729 5726 5723 5720 5718 5715 5712 5709 5706 5703 5701 5699 5697 5694 5692 5689 5687 5684 5682 5680 5677 5675 5673 5671 5668 5666 5663 5661 5658 5656 5654 5651 5648 5646 5644 5642 5640 5638 5636 5635
5731 5729 5726 5724 5721 5718 5715 5713 5710 5707 5704 5702 5699 5697 5694 5692 5690 5688 5685 5682 5679 5677 5675 5673 5671 5668 5666 5663 5660 5658 5656 5653 5651 5648 5646 5643 5640 5638 5635 5633 5631 5629 5628
5726 5724 5721 5719 5716 5713 5710 5708 5704 5702 5699 5697 5694 5692 5690 5688 5686 5683 5681 5678 5675 5673 5670 5668 5665 5663 5661 5658 5655 5653 5650 5648 5645 5643 5640 5637 5634 5632 5629 5627 5624 5622 5621
5722 5719 5717 5714 5711 5708 5705 5703 5700 5697 5694 5692 5690 5688 5685 5683 5681 5679 5676 5673 5671 5668 5665 5663 5660 5657 5655 5652 5650 5647 5645 5642 5640 5637 5634 5631 5628 5625 5622 5620 5617 5615 5613
5717 5715 5712 5709 5706 5704 5701 5698 5695 5692 5690 5687 5686 5684 5682 5679 5677 5675 5672 5669 5666 5663 5660 5657 5655 5652 5649 5646 5644 5641 5639 5636 5633 5631 5628 5625 5622 5619 5616 5613 5611 5608 5606
5713 5711 5708 5705 5702 5700 5697 5694 5691 5689 5686 5684 5682 5681 5679 5676 5674 5671 5668 5665 5662 5659 5655 5652 5649 5647 5644 5641 5639 5636 5633 5630 5628 5625 5622 5620 5617 5614 5611 5608 5605 5602 5600
5709 5707 5704 5702 5699 5696 5693 5691 5688 5686 5684 5681 5679 5678 5676 5673 5671 5668 5664 5661 5658 5654 5651 5648 5645 5642 5639 5636 5633 5630 5627 5625 5622 5619 5616 5613 5611 5608 5605 5602 5599 5596 5593
5705 5703 5701 5698 5696 5693 5691 5688 5686 5684 5681 5679 5677 5675 5673 5670 5668 5665 5661 5658 5654 5650 5647 5644 5641 5637 5634 5631 5628 5625 5622 5619 5616 5613 5610 5607 5604 5602 5599 5596 5593 5590 5588
5701 5699 5697 5695 5693 5690 5688 5686 5684 5681 5679 5677 5675 5673 5670 5668 5665 5661 5657 5654 5650 5647 5643 5640 5636 5633 5630 5627 5623 5620 5617 5614 5610 5607 5604 5602 5599 5596 5593 5590 5588 5585 5582
5698 5696 5694 5692 5690 5688 5686 5684 5682 5680 5677 5675 5673 5670 5667 5664 5661 5658 5654 5650 5647 5643 5640 5636 5632 5629 5625 5622 5619 5615 5612 5609 5605 5602 5599 5596 5593 5590 5588 5585 5582 5579 5576
5695 5693 5691 5689 5688 5686 5684 5682 5680 5678 5675 5673 5670 5668 5665 5662 5658 5654 5651 5647 5644 5640 5636 5633 5629 5625 5621 5618 5614 5611 5607 5604 5600 5597 5594 5591 5588 5585 5582 5579 5576 5572 5569
5692 5690 5689 5687 5686 5684 5682 5680 5678 5676 5674 5672 5669 5666 5663 5659 5656 5652 5648 5644 5641 5637 5633 5629 5625 5621 5617 5614 5610 5606 5602 5599 5595 5592 5588 5585 5582 5579 5576 5573 5569 5566 5563
5689 5688 5687 5686 5684 5683 5681 5679 5677 5675 5673 5670 5667 5664 5661 5657 5653 5649 5645 5642 5637 5634 5630 5625 5621 5617 5613 5609 5605 5602 5598 5594 5590 5587 5583 5580 5576 5573 5570 5567 5563 5560 5557
5688 5687 5686 5685 5683 5682 5680 5678 5676 5674 5671 5669 5666 5663 5659 5655 5652 5648 5644 5639 5635 5631 5626 5622 5618 5614 5610 5606 5602 5597 5593 5589 5586 5582 5578 5574 5571 5568 5564 5561 5558 5555 5551
5686 5686 5685 5683 5682 5680 5679 5677 5675 5672 5670 5667 5664 5661 5658 5654 5650 5646 5642 5638 5633 5629 5624 5620 5615 5611 5607 5603 5598 5594 5590 5585 5582 5578 5574 5570 5567 5563 5560 5557 5554 5550 5547
5685 5684 5684 5683 5681 5679 5678 5676 5674 5671 5669 5666 5663 5660 5656 5653 5649 5645 5640 5636 5632 5627 5622 5618 5613 5609 5604 5600 5595 5591 5586 5582 5578 5574 5570 5566 5563 5560 5556 5553 5550 5546 5543
5684 5683 5683 5681 5680 5678 5677 5675 5673 5670 5668 5665 5662 5659 5655 5652 5648 5643 5639 5635 5630 5625 5621 5616 5612 5607 5602 5598 5593 5588 5584 5579 5575 5571 5567 5563 5560 5556 5553 5550 5546 5542 5539
5683 5682 5682 5681 5679 5678 5676 5674 5672 5669 5667 5664 5661 5658 5654 5650 5646 5642 5638 5634 5629 5624 5620 5615 5610 5605 5601 5596 5591 5586 5581 5577 5572 5568 5564 5560 5557 5553 5550 5546 5542 5539 5535
5682 5681 5681 5680 5678 5677 5675 5673 5671 5668 5666 5663 5660 5657 5653 5650 5645 5641 5637 5633 5628 5624 5619 5614 5609 5604 5599 5594 5589 5584 5579 5575 5570 5566 5561 5558 5554 5550 5546 5542 5538 5534 5531
5680 5680 5679 5678 5677 5675 5673 5671 5670 5667 5665 5662 5659 5656 5653 5649 5645 5641 5636 5632 5627 5623 5618 5613 5608 5603 5598 5593 5588 5583 5578 5573 5568 5563 5559 5555 5551 5547 5542 5538 5534 5530 5526